,,,PA_Meas_PMT16A,,PR_Meas_QMR101_102,,RH_Meas_QMH101,,SR_Meas_QMS101,,TA_Meas_QMH101,,GenWind,,GenWind,
date,time,status,PA,status,PR,status,RH,status,SR,status,TA,status,DirAvg,status,SpdAvg,
2010-09-29, 00:00:04,VALID,1000.14,VALID,0,VALID,62.4729,VALID,383.447,VALID,30.9959,VALID,132,VALID,2.22695,
2010-09-29, 00:01:04,VALID,1000.13,VALID,0,VALID,61.0463,VALID,390.385,VALID,30.9132,VALID,134,VALID,3.18789,
2010-09-29, 00:02:04,VALID,1000.11,VALID,0,VALID,59.6655,VALID,346.64,VALID,30.896,VALID,142,VALID,2.63633,
2010-09-29, 00:03:04,VALID,1000.1,VALID,0,VALID,60.5504,VALID,293.443,VALID,30.8594,VALID,151,VALID,2.6207,
2010-09-29, 00:04:04,VALID,1000.14,VALID,0,VALID,61.5422,VALID,279.766,VALID,30.8375,VALID,111,VALID,1.74688,
2010-09-29, 00:05:04,VALID,1000.11,VALID,0,VALID,61.4125,VALID,274.034,VALID,30.7985,VALID,131,VALID,2.31211,
2010-09-29, 00:06:04,VALID,1000.16,VALID,0,VALID,60.0851,VALID,280.168,VALID,30.7423,VALID,129,VALID,3.84531,
2010-09-29, 00:07:04,VALID,1000.15,VALID,0,VALID,59.6731,VALID,276.95,VALID,30.6643,VALID,128,VALID,3.13047,
2010-09-29, 00:08:04,VALID,1000.15,VALID,0,VALID,61.0082,VALID,269.006,VALID,30.5644,VALID,113,VALID,2.3707,
2010-09-29, 00:09:04,VALID,1000.15,VALID,0,VALID,61.7329,VALID,269.308,VALID,30.5059,VALID,127,VALID,3.27852,
2010-09-29, 00:10:04,VALID,1000.12,VALID,0,VALID,62.122,VALID,269.408,VALID,30.4474,VALID,128,VALID,3.68711,
2010-09-29, 00:11:04,VALID,1000.12,VALID,0,VALID,63.9758,VALID,282.481,VALID,30.4084,VALID,140,VALID,2.02773,
2010-09-29, 00:12:04,VALID,1000.08,VALID,0,VALID,63.9453,VALID,293.744,VALID,30.4061,VALID,131,VALID,2.34844,
2010-09-29, 00:13:04,VALID,1000.05,VALID,0,VALID,63.1442,VALID,299.879,VALID,30.4864,VALID,126,VALID,2.35664,
2010-09-29, 00:14:04,VALID,1000.02,VALID,0,VALID,63.8232,VALID,305.611,VALID,30.3694,VALID,100,VALID,2.1625,
2010-09-29, 00:15:04,VALID,1000.03,VALID,0,VALID,63.9376,VALID,296.258,VALID,30.3109,VALID,89,VALID,2.34336,
2010-09-29, 00:16:04,VALID,999.999,VALID,0,VALID,66.0432,VALID,303.801,VALID,30.4084,VALID,124,VALID,1.55859,
2010-09-29, 00:17:04,VALID,1000,VALID,0,VALID,64.0292,VALID,307.421,VALID,30.4084,VALID,117,VALID,2.39687,
2010-09-29, 00:18:04,VALID,999.936,VALID,0,VALID,64.5403,VALID,309.231,VALID,30.3889,VALID,130,VALID,2.43867,
2010-09-29, 00:19:04,VALID,1000,VALID,0,VALID,64.3267,VALID,318.282,VALID,30.4279,VALID,118,VALID,2.01797,
2010-09-29, 00:20:04,VALID,1000.02,VALID,0,VALID,62.595,VALID,332.863,VALID,30.4451,VALID,94,VALID,2.05039,
2010-09-29, 00:21:04,VALID,999.993,VALID,0,VALID,64.937,VALID,331.455,VALID,30.4474,VALID,132,VALID,2.13789,
2010-09-29, 00:22:04,VALID,999.99,VALID,0,VALID,65.0133,VALID,331.154,VALID,30.3889,VALID,134,VALID,2.05547,
2010-09-29, 00:23:04,VALID,1000.06,VALID,0,VALID,64.6777,VALID,332.964,VALID,30.4061,VALID,130,VALID,2.68164,
2010-09-29, 00:24:04,VALID,1000.07,VALID,0,VALID,65.1583,VALID,327.131,VALID,30.4474,VALID,106,VALID,1.22969,
2010-09-29, 00:25:04,VALID,1000.08,VALID,0,VALID,65.6389,VALID,333.567,VALID,30.4646,VALID,81,VALID,1.72422,
2010-09-29, 00:26:04,VALID,1000.1,VALID,0,VALID,66.2187,VALID,334.171,VALID,30.5644,VALID,140,VALID,2.1625,
2010-09-29, 00:27:04,VALID,1000.09,VALID,0,VALID,64.7921,VALID,339.702,VALID,30.5059,VALID,113,VALID,2.88047,
2010-09-29, 00:28:04,VALID,1000.09,VALID,0,VALID,64.6929,VALID,343.523,VALID,30.3671,VALID,128,VALID,2.70078,
2010-09-29, 00:29:04,VALID,1000.1,VALID,0,VALID,65.1125,VALID,344.529,VALID,30.3889,VALID,79,VALID,2.02813,
2010-09-29, 00:30:04,VALID,1000.08,VALID,0,VALID,67.7368,VALID,346.339,VALID,30.4256,VALID,144,VALID,1.71406,
2010-09-29, 00:31:04,VALID,1000.15,VALID,0,VALID,65.8144,VALID,357.2,VALID,30.5621,VALID,123,VALID,1.44687,
2010-09-29, 00:32:04,VALID,1000.13,VALID,0,VALID,66.2111,VALID,353.68,VALID,30.5059,VALID,117,VALID,2.0082,
2010-09-29, 00:33:04,VALID,1000.16,VALID,0,VALID,67.2944,VALID,350.864,VALID,30.5254,VALID,146,VALID,2.28711,
2010-09-29, 00:34:04,VALID,1000.16,VALID,0,VALID,65.4024,VALID,346.942,VALID,30.4864,VALID,121,VALID,2.05938,
2010-09-29, 00:35:04,VALID,1000.19,VALID,0,VALID,66.9587,VALID,345.333,VALID,30.4669,VALID,132,VALID,1.71406,
2010-09-29, 00:36:04,VALID,1000.17,VALID,0,VALID,67.3172,VALID,343.724,VALID,30.4669,VALID,139,VALID,1.53633,
2010-09-29, 00:37:04,VALID,1000.17,VALID,0,VALID,66.7146,VALID,337.188,VALID,30.5449,VALID,110,VALID,2.02461,
2010-09-29, 00:38:04,VALID,1000.17,VALID,0,VALID,66.829,VALID,338.696,VALID,30.5036,VALID,100,VALID,1.49805,
2010-09-29, 00:39:04,VALID,1000.16,VALID,0,VALID,66.3407,VALID,337.59,VALID,30.5621,VALID,90,VALID,1.22969,
2010-09-29, 00:40:04,VALID,1000.11,VALID,0,VALID,66.7298,VALID,334.673,VALID,30.5449,VALID,136,VALID,2.375,
2010-09-29, 00:41:04,VALID,1000.16,VALID,0,VALID,66.356,VALID,328.539,VALID,30.4841,VALID,114,VALID,2.51992,
2010-09-29, 00:42:04,VALID,1000.13,VALID,0,VALID,66.9129,VALID,321.701,VALID,30.4061,VALID,128,VALID,2.10273,
2010-09-29, 00:43:04,VALID,1000.16,VALID,0,VALID,67.1799,VALID,326.226,VALID,30.3889,VALID,87,VALID,1.6082,
2010-09-29, 00:44:04,VALID,1000.18,VALID,0,VALID,66.6764,VALID,328.539,VALID,30.3866,VALID,92,VALID,0.625391,
2010-09-29, 00:45:04,VALID,1000.16,VALID,0,VALID,67.035,VALID,336.785,VALID,30.4061,VALID,85,VALID,1.29219,
2010-09-29, 00:46:04,VALID,1000.2,VALID,0,VALID,68.4692,VALID,342.618,VALID,30.4451,VALID,112,VALID,1.19141,
2010-09-29, 00:47:04,VALID,1000.18,VALID,0,VALID,66.1653,VALID,344.126,VALID,30.5449,VALID,118,VALID,1.61211,
2010-09-29, 00:48:04,VALID,1000.2,VALID,0,VALID,64.6624,VALID,334.673,VALID,30.5839,VALID,103,VALID,1.96172,
2010-09-29, 00:49:04,VALID,1000.25,VALID,0,VALID,63.6706,VALID,318.181,VALID,30.6011,VALID,104,VALID,1.65703,
2010-09-29, 00:50:04,VALID,1000.27,VALID,0,VALID,63.19,VALID,321.6,VALID,30.5644,VALID,68,VALID,1.44961,
2010-09-29, 00:51:04,VALID,1000.26,VALID,0,VALID,64.403,VALID,325.019,VALID,30.5621,VALID,129,VALID,0.667578,
2010-09-29, 00:52:04,VALID,1000.27,VALID,0,VALID,65.8449,VALID,330.148,VALID,30.5621,VALID,103,VALID,2.28047,
2010-09-29, 00:53:04,VALID,1000.23,VALID,0,VALID,66.3865,VALID,326.93,VALID,30.5449,VALID,115,VALID,2.28047,
2010-09-29, 00:54:04,VALID,1000.23,VALID,0,VALID,67.6911,VALID,334.07,VALID,30.5254,VALID,144,VALID,2.42188,
2010-09-29, 00:55:04,VALID,1000.26,VALID,0,VALID,65.7838,VALID,342.719,VALID,30.4279,VALID,119,VALID,2.12266,
2010-09-29, 00:56:04,VALID,1000.29,VALID,0,VALID,65.9059,VALID,343.221,VALID,30.3671,VALID,108,VALID,2.10781,
2010-09-29, 00:57:04,VALID,1000.28,VALID,0,VALID,65.3795,VALID,335.78,VALID,30.3694,VALID,121,VALID,2.56797,
2010-09-29, 00:58:04,VALID,1000.27,VALID,0,VALID,65.5016,VALID,329.846,VALID,30.4084,VALID,113,VALID,2.25391,
2010-09-29, 00:59:04,VALID,1000.28,VALID,0,VALID,65.3414,VALID,321.299,VALID,30.3889,VALID,119,VALID,1.94766,
2010-09-29, 01:00:04,VALID,1000.23,VALID,0,VALID,65.3032,VALID,318.684,VALID,30.4061,VALID,118,VALID,2.07539,
2010-09-29, 01:01:04,VALID,1000.22,VALID,0,VALID,66.6993,VALID,322.505,VALID,30.4841,VALID,84,VALID,1.51367,
2010-09-29, 01:02:04,VALID,1000.23,VALID,0,VALID,65.5092,VALID,324.617,VALID,30.5036,VALID,114,VALID,2.68906,
2010-09-29, 01:03:04,VALID,1000.25,VALID,0,VALID,65.4329,VALID,310.136,VALID,30.4669,VALID,115,VALID,1.80781,
2010-09-29, 01:04:04,VALID,1000.27,VALID,0,VALID,63.9148,VALID,278.559,VALID,30.4864,VALID,114,VALID,2.1625,
2010-09-29, 01:05:04,VALID,1000.24,VALID,0,VALID,63.7927,VALID,268.905,VALID,30.4669,VALID,38,VALID,1.12578,
2010-09-29, 01:06:04,VALID,1000.26,VALID,0,VALID,64.0368,VALID,237.63,VALID,30.5059,VALID,64,VALID,1.21719,
2010-09-29, 01:07:04,VALID,1000.29,VALID,0,VALID,64.0444,VALID,198.712,VALID,30.5059,VALID,102,VALID,0.899609,
2010-09-29, 01:08:04,VALID,1000.29,VALID,0,VALID,63.3579,VALID,155.47,VALID,30.4279,VALID,96,VALID,2.35469,
2010-09-29, 01:09:04,VALID,1000.26,VALID,0,VALID,63.93,VALID,149.135,VALID,30.3499,VALID,84,VALID,1.41328,
2010-09-29, 01:10:04,VALID,1000.3,VALID,0,VALID,64.3191,VALID,129.324,VALID,30.2913,VALID,52,VALID,0.638672,
2010-09-29, 01:11:04,VALID,1000.28,VALID,0,VALID,64.7463,VALID,105.591,VALID,30.2913,VALID,22,VALID,0.619922,
2010-09-29, 01:12:04,VALID,1000.29,VALID,0,VALID,64.464,VALID,92.2162,VALID,30.2328,VALID,82,VALID,1.78867,
2010-09-29, 01:13:04,VALID,1000.3,VALID,0,VALID,65.1583,VALID,86.4841,VALID,30.1548,VALID,66,VALID,1.92656,
2010-09-29, 01:14:04,VALID,1000.29,VALID,0,VALID,65.6084,VALID,81.5565,VALID,30.0768,VALID,26,VALID,0.923047,
2010-09-29, 01:15:04,VALID,1000.34,VALID,0,VALID,65.3032,VALID,81.456,VALID,29.9988,VALID,100,VALID,1.47031,
2010-09-29, 01:16:04,VALID,1000.32,VALID,0,VALID,65.5931,VALID,84.674,VALID,29.9208,VALID,105,VALID,2.08281,
2010-09-29, 01:17:04,VALID,1000.33,VALID,0,VALID,65.6999,VALID,85.1768,VALID,29.9013,VALID,43,VALID,1.45703,
2010-09-29, 01:18:04,VALID,1000.31,VALID,0,VALID,64.9065,VALID,91.11,VALID,29.821,VALID,99,VALID,2.18672,
2010-09-29, 01:19:04,VALID,1000.35,VALID,0,VALID,66.3331,VALID,103.178,VALID,29.8233,VALID,39,VALID,0.984375,
2010-09-29, 01:20:04,VALID,1000.35,VALID,0,VALID,65.8601,VALID,116.854,VALID,29.7843,VALID,20,VALID,2.54883,
2010-09-29, 01:21:04,VALID,1000.37,VALID,0,VALID,66.6383,VALID,155.269,VALID,29.8038,VALID,357,VALID,0.626562,
2010-09-29, 01:22:04,VALID,1000.38,VALID,0,VALID,66.2263,VALID,172.365,VALID,29.8015,VALID,44,VALID,1.07383,
2010-09-29, 01:23:04,VALID,1000.37,VALID,0,VALID,66.3789,VALID,174.98,VALID,29.8623,VALID,103,VALID,1.31484,
2010-09-29, 01:24:04,VALID,1000.38,VALID,0,VALID,65.5016,VALID,173.371,VALID,29.8795,VALID,99,VALID,2.21211,
2010-09-29, 01:25:04,VALID,1000.36,VALID,0,VALID,66.2263,VALID,169.449,VALID,29.86,VALID,111,VALID,1.72734,
2010-09-29, 01:26:04,VALID,1000.33,VALID,0,VALID,66.6154,VALID,152.252,VALID,29.9598,VALID,96,VALID,0.926172,
2010-09-29, 01:27:04,VALID,1000.32,VALID,0,VALID,65.9669,VALID,164.018,VALID,30.055,VALID,89,VALID,0.994531,
2010-09-29, 01:28:04,VALID,1000.34,VALID,0,VALID,65.7304,VALID,178.399,VALID,30.0745,VALID,102,VALID,0.875391,
2010-09-29, 01:29:04,VALID,1000.35,VALID,0,VALID,65.822,VALID,169.951,VALID,30.0963,VALID,72,VALID,1.18047,
2010-09-29, 01:30:04,VALID,1000.34,VALID,0,VALID,65.3795,VALID,158.186,VALID,30.0745,VALID,94,VALID,1.61016,
2010-09-29, 01:31:04,VALID,1000.32,VALID,0,VALID,64.5937,VALID,149.537,VALID,30.016,VALID,94,VALID,2.43164,
2010-09-29, 01:32:04,VALID,1000.36,VALID,0,VALID,65.7457,VALID,130.832,VALID,30.016,VALID,47,VALID,0.803125,
2010-09-29, 01:33:04,VALID,1000.37,VALID,0,VALID,65.2803,VALID,126.81,VALID,29.977,VALID,111,VALID,1.87578,
2010-09-29, 01:34:04,VALID,1000.44,VALID,0,VALID,64.7463,VALID,136.263,VALID,29.9575,VALID,76,VALID,2.49531,
2010-09-29, 01:35:04,VALID,1000.45,VALID,0,VALID,64.8836,VALID,130.732,VALID,29.9403,VALID,94,VALID,1.68281,
2010-09-29, 01:36:04,VALID,1000.48,VALID,0,VALID,66.0737,VALID,126.709,VALID,29.9013,VALID,73,VALID,0.566406,
2010-09-29, 01:37:04,VALID,1000.49,VALID,0,VALID,66.0356,VALID,121.48,VALID,29.9013,VALID,24,VALID,0.976172,
2010-09-29, 01:38:04,VALID,1000.54,VALID,0,VALID,66.4781,VALID,113.334,VALID,29.8405,VALID,6,VALID,1.27773,
2010-09-29, 01:39:04,VALID,1000.58,VALID,0,VALID,66.7756,VALID,100.664,VALID,29.8038,VALID,75,VALID,1.99258,
2010-09-29, 01:40:04,VALID,1000.61,VALID,0,VALID,67.4698,VALID,97.4455,VALID,29.7648,VALID,72,VALID,0.983203,
2010-09-29, 01:41:04,VALID,1000.64,VALID,0,VALID,68.1335,VALID,96.8421,VALID,29.6845,VALID,28,VALID,1.30117,
2010-09-29, 01:42:04,VALID,1000.67,VALID,0,VALID,68.7133,VALID,91.0095,VALID,29.587,VALID,69,VALID,1.81367,
2010-09-29, 01:43:04,VALID,1000.69,VALID,0,VALID,68.515,VALID,86.6853,VALID,29.548,VALID,23,VALID,1.37852,
2010-09-29, 01:44:04,VALID,1000.71,VALID,0,VALID,69.5449,VALID,86.3836,VALID,29.47,VALID,42,VALID,0.769922,
2010-09-29, 01:45:04,VALID,1000.73,VALID,0,VALID,70.201,VALID,82.3611,VALID,29.4115,VALID,61,VALID,1.09961,
2010-09-29, 01:46:04,VALID,1000.73,VALID,0,VALID,70.5977,VALID,78.238,VALID,29.3748,VALID,11,VALID,1.5582,
2010-09-29, 01:47:04,VALID,1000.71,VALID,0,VALID,70.2391,VALID,80.6515,VALID,29.314,VALID,76,VALID,1.14844,
2010-09-29, 01:48:04,VALID,1000.74,VALID,0,VALID,70.4146,VALID,80.6515,VALID,29.2556,VALID,12,VALID,1.90273,
2010-09-29, 01:49:04,VALID,1000.79,VALID,0,VALID,71.4216,VALID,74.1149,VALID,29.1798,VALID,45,VALID,1.42773,
2010-09-29, 01:50:04,VALID,1000.83,VALID,0,VALID,71.0783,VALID,69.7907,VALID,29.1408,VALID,15,VALID,2.24844,
2010-09-29, 01:51:04,VALID,1000.85,VALID,0,VALID,71.2309,VALID,66.8744,VALID,29.0411,VALID,70,VALID,1.37891,
2010-09-29, 01:52:04,VALID,1000.84,VALID,0,VALID,71.8259,VALID,64.9637,VALID,29.0021,VALID,19,VALID,2.01367,
2010-09-29, 01:53:04,VALID,1000.85,VALID,0,VALID,72.1005,VALID,60.5389,VALID,28.9826,VALID,12,VALID,1.26016,
2010-09-29, 01:54:04,VALID,1000.84,VALID,0,VALID,71.9098,VALID,59.7344,VALID,28.9653,VALID,71,VALID,1.23828,
2010-09-29, 01:55:04,VALID,1000.89,VALID,0,VALID,72.4362,VALID,58.8293,VALID,28.9458,VALID,56,VALID,0.714063,
2010-09-29, 01:56:04,VALID,1000.93,VALID,0,VALID,72.4667,VALID,59.2316,VALID,28.9068,VALID,17,VALID,1.25547,
2010-09-29, 01:57:04,VALID,1000.98,VALID,0,VALID,72.4973,VALID,55.913,VALID,28.8678,VALID,39,VALID,0.798437,
2010-09-29, 01:58:04,VALID,1000.93,VALID,0,VALID,72.5278,VALID,50.8848,VALID,28.8483,VALID,38,VALID,0.910937,
2010-09-29, 01:59:04,VALID,1000.98,VALID,0,VALID,72.8787,VALID,47.6668,VALID,28.8093,VALID,66,VALID,1.36289,
2010-09-29, 02:00:04,VALID,1000.92,VALID,0,VALID,73.0313,VALID,44.5494,VALID,28.7487,VALID,24,VALID,1.24688,
2010-09-29, 02:01:04,VALID,1000.96,VALID,0,VALID,73.3212,VALID,41.8342,VALID,28.6902,VALID,76,VALID,0.890625,
2010-09-29, 02:02:04,VALID,1000.97,VALID,0,VALID,73.9849,VALID,39.8229,VALID,28.6924,VALID,29,VALID,0.9375,
2010-09-29, 02:03:04,VALID,1001,VALID,0,VALID,73.1915,VALID,38.1134,VALID,28.6339,VALID,34,VALID,2.49141,
2010-09-29, 02:04:04,VALID,1000.99,VALID,0,VALID,73.5272,VALID,36.6049,VALID,28.5732,VALID,12,VALID,2.67422,
2010-09-29, 02:05:04,VALID,1001.01,VALID,0,VALID,74.1527,VALID,35.2976,VALID,28.5537,VALID,59,VALID,0.728125,
2010-09-29, 02:06:04,VALID,1001.02,VALID,0,VALID,73.7865,VALID,34.1914,VALID,28.4974,VALID,14,VALID,2.11797,
2010-09-29, 02:07:04,VALID,1000.99,VALID,0,VALID,74.1985,VALID,33.1858,VALID,28.4758,VALID,93,VALID,0.973437,
2010-09-29, 02:08:04,VALID,1001.03,VALID,0,VALID,74.6028,VALID,32.3813,VALID,28.4584,VALID,17,VALID,1.58594,
2010-09-29, 02:09:04,VALID,1001.06,VALID,0,VALID,74.3511,VALID,31.6773,VALID,28.3978,VALID,80,VALID,1.30742,
2010-09-29, 02:10:04,VALID,1001.09,VALID,0,VALID,75.03,VALID,31.2751,VALID,28.3978,VALID,29,VALID,0.787891,
2010-09-29, 02:11:04,VALID,1001.08,VALID,0,VALID,75.0071,VALID,30.6717,VALID,28.3588,VALID,45,VALID,1.1418,
2010-09-29, 02:12:04,VALID,1001.08,VALID,0,VALID,75.0911,VALID,30.0683,VALID,28.361,VALID,9,VALID,1.06562,
2010-09-29, 02:13:04,VALID,1001.04,VALID,0,VALID,75.1521,VALID,29.2638,VALID,28.3415,VALID,84,VALID,0.784375,
2010-09-29, 02:14:04,VALID,1001.05,VALID,0,VALID,75.3886,VALID,28.4593,VALID,28.3003,VALID,13,VALID,1.15117,
2010-09-29, 02:15:04,VALID,1001.01,VALID,0,VALID,75.7548,VALID,27.6548,VALID,28.2809,VALID,31,VALID,0.548828,
2010-09-29, 02:16:04,VALID,1001,VALID,0,VALID,76.0599,VALID,26.9509,VALID,28.283,VALID,59,VALID,0.722266,
2010-09-29, 02:17:04,VALID,1001.01,VALID,0,VALID,76.037,VALID,26.2469,VALID,28.2419,VALID,7,VALID,0.947266,
2010-09-29, 02:18:04,VALID,1001.01,VALID,0,VALID,76.1133,VALID,25.3419,VALID,28.2029,VALID,12,VALID,0.985937,
2010-09-29, 02:19:04,VALID,1001,VALID,0,VALID,76.3498,VALID,24.3362,VALID,28.1834,VALID,9,VALID,1.65078,
2010-09-29, 02:20:04,VALID,1001.05,VALID,0,VALID,76.7389,VALID,23.5317,VALID,28.1249,VALID,21,VALID,1.66484,
2010-09-29, 02:21:04,VALID,1001.06,VALID,0,VALID,76.9067,VALID,22.7272,VALID,28.1054,VALID,23,VALID,1.86289,
2010-09-29, 02:22:04,VALID,1001.09,VALID,0,VALID,76.861,VALID,21.9227,VALID,28.0665,VALID,10,VALID,2.00039,
2010-09-29, 02:23:04,VALID,1001.1,VALID,0,VALID,76.8686,VALID,21.4199,VALID,28.0686,VALID,359,VALID,1.08555,
2010-09-29, 02:24:04,VALID,1001.12,VALID,0,VALID,77.5171,VALID,21.7216,VALID,28.0254,VALID,27,VALID,1.09648,
2010-09-29, 02:25:04,VALID,1001.15,VALID,0,VALID,77.5323,VALID,21.8222,VALID,27.9864,VALID,33,VALID,1.21719,
2010-09-29, 02:26:04,VALID,1001.17,VALID,0,VALID,77.5018,VALID,21.3193,VALID,27.9864,VALID,97,VALID,0.488281,
2010-09-29, 02:27:04,VALID,1001.17,VALID,0,VALID,77.5171,VALID,20.4143,VALID,27.9885,VALID,15,VALID,1.57773,
2010-09-29, 02:28:04,VALID,1001.17,VALID,0,VALID,77.1509,VALID,19.107,VALID,27.9495,VALID,350,VALID,1.71523,
2010-09-29, 02:29:04,VALID,1001.22,VALID,0,VALID,77.4331,VALID,17.498,VALID,27.9495,VALID,10,VALID,1.60508,
2010-09-29, 02:30:04,VALID,1001.27,VALID,0,VALID,77.7688,VALID,15.8889,VALID,27.9279,VALID,81,VALID,0.373047,
2010-09-29, 02:31:04,VALID,1001.28,VALID,0,VALID,77.2653,VALID,14.5816,VALID,27.9495,VALID,3,VALID,2.25312,
2010-09-29, 02:32:04,VALID,1001.29,VALID,0,VALID,77.9977,VALID,13.2743,VALID,27.9084,VALID,46,VALID,0.755859,
2010-09-29, 02:33:04,VALID,1001.31,VALID,0,VALID,77.8832,VALID,11.8664,VALID,27.8694,VALID,65,VALID,0.819531,
2010-09-29, 02:34:04,VALID,1001.29,VALID,0,VALID,78.2799,VALID,10.5591,VALID,27.8694,VALID,57,VALID,0.359766,
2010-09-29, 02:35:04,VALID,1001.33,VALID,0,VALID,78.0206,VALID,9.35235,VALID,27.8305,VALID,12,VALID,0.996094,
2010-09-29, 02:36:04,VALID,1001.36,VALID,0,VALID,78.4783,VALID,8.1456,VALID,27.7915,VALID,33,VALID,0.784375,
2010-09-29, 02:37:04,VALID,1001.42,VALID,0,VALID,79.1649,VALID,6.93884,VALID,27.772,VALID,33,VALID,0.347266,
2010-09-29, 02:38:04,VALID,1001.41,VALID,0,VALID,78.7758,VALID,5.83265,VALID,27.7741,VALID,23,VALID,0.876562,
2010-09-29, 02:39:04,VALID,1001.48,VALID,0,VALID,78.9818,VALID,4.72646,VALID,27.7157,VALID,81,VALID,0.796875,
2010-09-29, 02:40:04,VALID,1001.48,VALID,0,VALID,79.2488,VALID,3.72083,VALID,27.6746,VALID,31,VALID,0.775,
2010-09-29, 02:41:04,VALID,1001.52,VALID,0,VALID,79.348,VALID,2.91633,VALID,27.6551,VALID,54,VALID,0.539063,
2010-09-29, 02:42:04,VALID,1001.49,VALID,0,VALID,79.348,VALID,2.31295,VALID,27.6572,VALID,15,VALID,0.332812,
2010-09-29, 02:43:04,VALID,1001.52,VALID,0,VALID,79.676,VALID,1.9107,VALID,27.5966,VALID,15,VALID,0.310156,
2010-09-29, 02:44:04,VALID,1001.5,VALID,0,VALID,79.4548,VALID,1.60901,VALID,27.5966,VALID,41,VALID,0.124219,
2010-09-29, 02:45:04,VALID,1001.55,VALID,0,VALID,79.615,VALID,1.30732,VALID,27.5772,VALID,14,VALID,0.854688,
2010-09-29, 02:46:04,VALID,1001.6,VALID,0,VALID,79.8057,VALID,1.10619,VALID,27.5577,VALID,21,VALID,1.37734,
2010-09-29, 02:47:04,VALID,1001.6,VALID,0,VALID,79.9736,VALID,0.905066,VALID,27.5792,VALID,27,VALID,0.826953,
2010-09-29, 02:48:04,VALID,1001.65,VALID,0,VALID,79.8515,VALID,0.804504,VALID,27.5403,VALID,75,VALID,1.42969,
2010-09-29, 02:49:04,VALID,1001.68,VALID,0,VALID,80.294,VALID,0.603378,VALID,27.5208,VALID,9,VALID,0.673828,
2010-09-29, 02:50:04,VALID,1001.67,VALID,0,VALID,80.3931,VALID,0.502815,VALID,27.5208,VALID,28,VALID,0.497656,
2010-09-29, 02:51:04,VALID,1001.67,VALID,0,VALID,80.2787,VALID,0.402252,VALID,27.4602,VALID,21,VALID,1.11133,
2010-09-29, 02:52:04,VALID,1001.67,VALID,0,VALID,80.6678,VALID,0.301689,VALID,27.4428,VALID,21,VALID,0.880078,
2010-09-29, 02:53:04,VALID,1001.67,VALID,0,VALID,80.8966,VALID,0.201126,VALID,27.4039,VALID,21,VALID,1.0707,
2010-09-29, 02:54:04,VALID,1001.68,VALID,0,VALID,81.0187,VALID,0.201126,VALID,27.4039,VALID,11,VALID,0.507031,
2010-09-29, 02:55:04,VALID,1001.69,VALID,0,VALID,80.7288,VALID,0.100563,VALID,27.4233,VALID,36,VALID,1.01992,
2010-09-29, 02:56:04,VALID,1001.69,VALID,0,VALID,80.8738,VALID,0.100563,VALID,27.4039,VALID,15,VALID,1.18828,
2010-09-29, 02:57:04,VALID,1001.73,VALID,0,VALID,81.1942,VALID,0,VALID,27.3844,VALID,59,VALID,0.487109,
2010-09-29, 02:58:04,VALID,1001.77,VALID,0,VALID,81.1942,VALID,0,VALID,27.3649,VALID,31,VALID,1.02813,
2010-09-29, 02:59:04,VALID,1001.76,VALID,0,VALID,81.0645,VALID,0,VALID,27.3454,VALID,43,VALID,0.349219,
2010-09-29, 03:00:04,VALID,1001.77,VALID,0,VALID,81.4002,VALID,0,VALID,27.3259,VALID,43,VALID,0.593359,
2010-09-29, 03:01:04,VALID,1001.75,VALID,0,VALID,81.7435,VALID,0,VALID,27.2849,VALID,12,VALID,0.733984,
2010-09-29, 03:02:04,VALID,1001.77,VALID,0,VALID,81.8121,VALID,0,VALID,27.2675,VALID,15,VALID,0.755078,
2010-09-29, 03:03:04,VALID,1001.81,VALID,0,VALID,81.9494,VALID,0,VALID,27.2869,VALID,33,VALID,0.650391,
2010-09-29, 03:04:04,VALID,1001.84,VALID,0,VALID,82.1173,VALID,0,VALID,27.2675,VALID,27,VALID,0.186719,
2010-09-29, 03:05:04,VALID,1001.86,VALID,0,VALID,81.6748,VALID,0,VALID,27.2675,VALID,79,VALID,1.72617,
2010-09-29, 03:06:04,VALID,1001.88,VALID,0,VALID,82.0639,VALID,0,VALID,27.248,VALID,59,VALID,0.416406,
2010-09-29, 03:07:04,VALID,1001.92,VALID,0,VALID,81.9647,VALID,0,VALID,27.2069,VALID,41,VALID,0.571875,
2010-09-29, 03:08:04,VALID,1001.88,VALID,0,VALID,81.896,VALID,0,VALID,27.2069,VALID,24,VALID,0.414063,
2010-09-29, 03:09:04,VALID,1001.89,VALID,0,VALID,82.1936,VALID,0,VALID,27.2285,VALID,29,VALID,0.914844,
2010-09-29, 03:10:04,VALID,1001.91,VALID,0,VALID,82.0181,VALID,0,VALID,27.2285,VALID,31,VALID,1.02461,
2010-09-29, 03:11:04,VALID,1001.91,VALID,0,VALID,82.2393,VALID,0.100563,VALID,27.2285,VALID,13,VALID,0.909375,
2010-09-29, 03:12:04,VALID,1001.92,VALID,0,VALID,81.9647,VALID,0,VALID,27.1875,VALID,28,VALID,1.19844,
2010-09-29, 03:13:04,VALID,1001.91,VALID,0,VALID,82.1707,VALID,0.100563,VALID,27.2069,VALID,349,VALID,0.657812,
2010-09-29, 03:14:04,VALID,1001.9,VALID,0,VALID,82.3919,VALID,0,VALID,27.1895,VALID,40,VALID,1.08984,
2010-09-29, 03:15:04,VALID,1001.94,VALID,0,VALID,82.5063,VALID,0,VALID,27.1895,VALID,15,VALID,0.866016,
2010-09-29, 03:16:04,VALID,1001.93,VALID,0,VALID,82.1325,VALID,0,VALID,27.17,VALID,352,VALID,1.52813,
2010-09-29, 03:17:04,VALID,1001.97,VALID,0,VALID,82.1478,VALID,0,VALID,27.1895,VALID,11,VALID,0.822266,
2010-09-29, 03:18:04,VALID,1001.98,VALID,0,VALID,81.8884,VALID,0.100563,VALID,27.2069,VALID,347,VALID,0.970312,
2010-09-29, 03:19:04,VALID,1002,VALID,0,VALID,81.8731,VALID,0.100563,VALID,27.2285,VALID,6,VALID,1.21055,
2010-09-29, 03:20:04,VALID,1002.06,VALID,0,VALID,81.9113,VALID,0,VALID,27.2285,VALID,15,VALID,1.18867,
2010-09-29, 03:21:04,VALID,1002.05,VALID,0,VALID,81.6519,VALID,0,VALID,27.2285,VALID,358,VALID,1.28086,
2010-09-29, 03:22:04,VALID,1002.08,VALID,0,VALID,81.4002,VALID,0,VALID,27.2869,VALID,352,VALID,1.41016,
2010-09-29, 03:23:04,VALID,1002.11,VALID,0,VALID,81.3239,VALID,0,VALID,27.3475,VALID,20,VALID,1.05156,
2010-09-29, 03:24:04,VALID,1002.09,VALID,0,VALID,80.828,VALID,0,VALID,27.3454,VALID,14,VALID,2.31602,
2010-09-29, 03:25:04,VALID,1002.1,VALID,0,VALID,80.7212,VALID,0,VALID,27.3844,VALID,354,VALID,1.76016,
2010-09-29, 03:26:04,VALID,1002.08,VALID,0,VALID,80.5457,VALID,0,VALID,27.4039,VALID,350,VALID,1.28945,
2010-09-29, 03:27:04,VALID,1002.12,VALID,0,VALID,80.7059,VALID,0,VALID,27.4254,VALID,357,VALID,0.971094,
2010-09-29, 03:28:04,VALID,1002.18,VALID,0,VALID,81.0492,VALID,0,VALID,27.4039,VALID,30,VALID,0.587109,
2010-09-29, 03:29:04,VALID,1002.22,VALID,0,VALID,81.2781,VALID,0,VALID,27.4059,VALID,28,VALID,0.601953,
2010-09-29, 03:30:04,VALID,1002.23,VALID,0,VALID,81.0111,VALID,0,VALID,27.367,VALID,17,VALID,1.27969,
2010-09-29, 03:31:04,VALID,1002.27,VALID,0,VALID,81.1713,VALID,0,VALID,27.3454,VALID,23,VALID,0.939453,
2010-09-29, 03:32:04,VALID,1002.23,VALID,0,VALID,81.1484,VALID,0,VALID,27.3454,VALID,13,VALID,1.05039,
2010-09-29, 03:33:04,VALID,1002.27,VALID,0,VALID,80.9043,VALID,0,VALID,27.3454,VALID,354,VALID,1.43711,
2010-09-29, 03:34:04,VALID,1002.33,VALID,0,VALID,81.1331,VALID,0,VALID,27.3649,VALID,35,VALID,1.06133,
2010-09-29, 03:35:04,VALID,1002.38,VALID,0,VALID,81.034,VALID,0,VALID,27.3844,VALID,18,VALID,1.39492,
2010-09-29, 03:36:04,VALID,1002.45,VALID,0,VALID,81.0492,VALID,0.100563,VALID,27.3433,VALID,23,VALID,1.58164,
2010-09-29, 03:37:04,VALID,1002.48,VALID,0,VALID,81.034,VALID,0,VALID,27.3823,VALID,44,VALID,1.25391,